Regional Weather Roundup
Issued by NWS

Home | Current Version | Previous Version | Graphics & Text | Print | Product List | Glossary On
Versions: 1 2 3 4 5 6 7 8 9 10 11 12 13 14 15 16 17 18 19 20 21 22 23 24 25 26 27 28 29 30 31 32 33 34 35 36 37 38 39 40 41 42 43 44 45 46 47 48 49 50
231
ASUS45 KSLC 240110
RWRUT

UTAH REGIONAL WEATHER ROUNDUP
NATIONAL WEATHER SERVICE SALT LAKE CITY UT
700 PM MDT FRI JUN 23 2017

UTZ001>011-023>025-240200-

NORTHERN UTAH

CITY           SKY/WX    TMP DP  RH WIND       PRES   REMARKS
BRIGHAM CITY   SUNNY     82  28  14 SW8       30.12S
HILL AFB       SUNNY     80  34  19 N5        30.15S
LOGAN          SUNNY     83  37  19 N3        30.12F
OGDEN          SUNNY     80  35  19 VRB3      30.12S
SALT LAKE CITY SUNNY     84  29  13 VRB7        N/A
TOOELE VALLEY  SUNNY     81  32  17 N5        30.13S
WENDOVER         N/A     85  23  10 NE7       30.11S
HEBER CITY     SUNNY     81  23  12 N7        30.16S
WEST JORDAN    SUNNY     81  42  25 NW9       30.14S

$$

UTZ011>015-024>027-240200-

CENTRAL/NORTHEAST UTAH

CITY           SKY/WX    TMP DP  RH WIND       PRES   REMARKS
PROVO AIRPORT  SUNNY     83  41  22 NW15      30.12S
MOAB/CANYONLAN SUNNY     95  16   5 CALM      29.96F
DELTA          SUNNY     88  18   7 NW13      30.10S
PRICE          SUNNY     85  21   9 NW15G21   30.14R
RICHFIELD      SUNNY     84  25  11 N9        30.15R
ROOSEVELT      SUNNY     88  30  12 S5        30.08S
VERNAL         SUNNY     86  34  15 CALM      30.08S

$$

UTZ013>016-019>022-027-240200-

SOUTHERN UTAH

CITY           SKY/WX    TMP DP  RH WIND       PRES   REMARKS
BRYCE CANYON   SUNNY     82  17   9 NW18G28   30.29R
CEDAR CITY     SUNNY     91  23   8 N9        30.10S
MILFORD        SUNNY     91  17   6 NE17G24   30.06F
ST GEORGE      CLEAR    107  31   7 W8        29.81F HX 100
HANKSVILLE     SUNNY     97  19   6 N17       29.99R HX  90
KANAB          SUNNY     97  30   9 W7G15     30.05S HX  91
BLANDING       SUNNY     89  28  11 NW9       30.15R

$$

REGIONAL REPORTS     COLORADO/ARIZONA

CITY           SKY/WX    TMP DP  RH WIND       PRES   REMARKS
CRAIG, CO      SUNNY     80  24  12 NW9       30.18S
GRAND JUNCTION SUNNY     91  20   7 W8G21     30.01R
RIFLE, CO      SUNNY     87  23   9 N14G22    30.08R
MONTROSE, CO   SUNNY     87  20   8 N16       30.09S
CORTEZ, CO     SUNNY     90  18   7 N12G25    30.08S
COLORADO CITY    N/A    100  32   9 W6        30.04S HX  94
PAGE, AZ       MOSUNNY  101  35  10 NW13      29.92S HX  95
GRAND CANYON   SUNNY     90  22   8 N8        30.18S
KINGMAN, AZ    SUNNY    105  32   8 SW14      29.89F HX  98
FLAGSTAFF, AZ  PTSUNNY   86  21   9 SW10      30.20S

$$

REGIONAL REPORTS    NEVADA/IDAHO/WYOMING

CITY           SKY/WX    TMP DP  RH WIND       PRES   REMARKS
LAS VEGAS, NV  MOSUNNY  112  17   3 N3        29.75F HX 103
ELY, NY        MOSUNNY   88  33  14 NW15G24   30.18S
ELKO, NV       PTSUNNY   87  26  11 NW9       30.15S
POCATELLO, ID  SUNNY     77  31  18 E6        30.18S
BURLEY, ID       N/A     77  31  18 W9        30.14F
FORT BRIDGER,    N/A     76  15  10 W17G25    30.30R
EVANSTON, WY   SUNNY     72  26  18 NW14      30.29R
ROCK SPRINGS,  SUNNY     75  18  11 W16G26    30.21S
KEMMERER, WY     N/A     70  28  21 NW14G23   30.30R

$$




USA.gov is the U.S. government's official web portal to all federal, state and local government web resources and services.